Weather History for Warroad, MN

Change the Weather History Date:

Friday, May 3, 2013

  Actual Average Record
Temperature  
Mean Temperature 34 °F -  
Max Temperature 44 °F 59 °F 86 °F (1980)
Min Temperature 23 °F 33 °F 16 °F (1967)
Degree Days  
Heating Degree Days 32    
Moisture  
Dew Point 24 °F    
Average Humidity 67    
Maximum Humidity 86    
Minimum Humidity 43    
Precipitation  
Precipitation 0.00 in - - ()
Sea Level Pressure  
Sea Level Pressure 30.42 in    
Wind  
Wind Speed 5 mph (NE)    
Max Wind Speed 14 mph    
Max Gust Speed 18 mph    
Visibility 10 miles    
Events      
Averages and records for this station are not official NWS values.
T = Trace of Precipitation, MM = Missing Value Source: NWS Daily Summary

Daily Weather History Graph

Daily Weather History Graph

Search for Another Location

Airport:

Trip Planner

Search our weather history database for the weather conditions in past years. The results will help you decide how hot, cold, wet, or windy it might be!

Date:

Astronomy

May. 03, 2013 Rise Set
Actual Time 5:56 AM CDT 8:40 PM CDT
Civil Twilight 5:20 AM CDT 9:16 PM CDT
Nautical Twilight 4:35 AM CDT 10:02 PM CDT
Astronomical Twilight 3:40 AM CDT 10:57 PM CDT
Moon 2:54 AM CDT (5/3) 2:05 PM CDT (5/3)
Length of Visible Light 15h 55m
Length of Day
14h 43m
Last Quarter, 37% of the Moon is Illuminated
May 3
Last Quarter
May 9
New
May 17
First Quarter
May 24
Full
May 31
Last Quarter

Hourly Weather History & Observations

Time (CDT) Temp. Windchill Dew Point Humidity Pressure Visibility Wind Dir Wind Speed Gust Speed Precip Events Conditions
12:14 AM 28.4 °F 23.3 °F 23.0 °F 80% 30.55 in 10.0 mi NE 4.6 mph - N/A   Clear
12:34 AM 28.4 °F 24.6 °F 21.2 °F 74% 30.55 in 10.0 mi NE 3.5 mph - N/A   Clear
12:54 AM 28.4 °F 24.6 °F 21.2 °F 74% 30.54 in 10.0 mi NNE 3.5 mph - N/A   Clear
1:14 AM 26.6 °F 22.6 °F 21.2 °F 80% 30.54 in 10.0 mi NNW 3.5 mph - N/A   Clear
1:34 AM 26.6 °F - 23.0 °F 86% 30.53 in 10.0 mi Calm Calm - N/A   Clear
1:54 AM 26.6 °F - 21.2 °F 80% 30.53 in 10.0 mi Calm Calm - N/A   Clear
2:14 AM 26.6 °F - 21.2 °F 80% 30.52 in 10.0 mi Calm Calm - N/A   Clear
2:34 AM 26.6 °F - 21.2 °F 80% 30.52 in 10.0 mi Calm Calm - N/A   Clear
2:54 AM 24.8 °F 20.5 °F 21.2 °F 86% 30.51 in 10.0 mi NW 3.5 mph - N/A   Clear
3:14 AM 24.8 °F - 19.4 °F 80% 30.51 in 10.0 mi Calm Calm - N/A   Clear
3:34 AM 24.8 °F - 19.4 °F 80% 30.51 in 10.0 mi Calm Calm - N/A   Clear
3:54 AM 23.0 °F - 19.4 °F 86% 30.51 in 10.0 mi Calm Calm - N/A   Clear
4:14 AM 23.0 °F 18.4 °F 19.4 °F 86% 30.51 in 10.0 mi NW 3.5 mph - N/A   Clear
4:34 AM 24.8 °F 20.5 °F 21.2 °F 86% 30.51 in 10.0 mi NNW 3.5 mph - N/A   Clear
4:54 AM 24.8 °F - 19.4 °F 80% 30.51 in 10.0 mi Calm Calm - N/A   Clear
5:14 AM 24.8 °F 20.5 °F 19.4 °F 80% 30.51 in 10.0 mi NNW 3.5 mph - N/A   Clear
5:34 AM 24.8 °F - 19.4 °F 80% 30.50 in 10.0 mi Calm Calm - N/A   Clear
5:54 AM 23.0 °F - 19.4 °F 86% 30.50 in 10.0 mi Calm Calm - N/A   Clear
6:14 AM 23.0 °F - 19.4 °F 86% 30.50 in 10.0 mi Calm Calm - N/A   Clear
6:34 AM 24.8 °F - 19.4 °F 80% 30.50 in 10.0 mi Calm Calm - N/A   Clear
6:54 AM 24.8 °F - 21.2 °F 86% 30.51 in 10.0 mi Calm Calm - N/A   Clear
7:14 AM 26.6 °F - 21.2 °F 80% 30.50 in 10.0 mi Calm Calm - N/A   Clear
7:33 AM 28.4 °F - 24.8 °F 86% 30.50 in 10.0 mi Calm Calm - N/A   Clear
7:54 AM 30.2 °F 26.7 °F 24.8 °F 80% 30.49 in 10.0 mi NNE 3.5 mph - N/A   Clear
8:14 AM 30.2 °F 25.4 °F 24.8 °F 80% 30.49 in 10.0 mi NNE 4.6 mph - N/A   Clear
8:33 AM 30.2 °F 25.4 °F 24.8 °F 80% 30.49 in 10.0 mi NNE 4.6 mph - N/A   Clear
8:54 AM 33.8 °F 27.7 °F 26.6 °F 75% 30.48 in 10.0 mi NE 6.9 mph - N/A   Clear
9:14 AM 33.8 °F 27.0 °F 24.8 °F 70% 30.48 in 10.0 mi ENE 8.1 mph - N/A   Clear
9:33 AM 33.8 °F 27.0 °F 24.8 °F 70% 30.48 in 10.0 mi ENE 8.1 mph - N/A   Clear
9:54 AM 33.8 °F 27.7 °F 26.6 °F 75% 30.47 in 10.0 mi ENE 6.9 mph - N/A   Clear
10:14 AM 33.8 °F 28.6 °F 26.6 °F 75% 30.46 in 10.0 mi ENE 5.8 mph - N/A   Clear
10:33 AM 35.6 °F 30.7 °F 26.6 °F 70% 30.46 in 10.0 mi NE 5.8 mph - N/A   Clear
10:54 AM 35.6 °F 29.9 °F 26.6 °F 70% 30.45 in 10.0 mi NE 6.9 mph - N/A   Clear
11:14 AM 37.4 °F 31.4 °F 26.6 °F 65% 30.44 in 10.0 mi ENE 8.1 mph - N/A   Clear
11:34 AM 37.4 °F 31.4 °F 26.6 °F 65% 30.44 in 10.0 mi NE 8.1 mph - N/A   Clear
11:54 AM 37.4 °F 31.4 °F 24.8 °F 60% 30.43 in 10.0 mi ENE 8.1 mph - N/A   Clear
12:14 PM 37.4 °F 30.8 °F 26.6 °F 65% 30.43 in 10.0 mi ENE 9.2 mph - N/A   Clear
12:34 PM 39.2 °F 33.6 °F 24.8 °F 56% 30.42 in 10.0 mi ENE 8.1 mph - N/A   Clear
12:54 PM 39.2 °F 32.0 °F 24.8 °F 56% 30.42 in 10.0 mi ENE 11.5 mph - N/A   Clear
1:14 PM 39.2 °F 32.5 °F 24.8 °F 56% 30.41 in 10.0 mi ENE 10.4 mph - N/A   Clear
1:34 PM 39.2 °F 33.0 °F 23.0 °F 52% 30.40 in 10.0 mi ENE 9.2 mph - N/A   Clear
1:54 PM 41.0 °F 35.2 °F 24.8 °F 53% 30.39 in 10.0 mi ENE 9.2 mph - N/A   Clear
2:14 PM 39.2 °F 33.0 °F 24.8 °F 56% 30.38 in 10.0 mi ENE 9.2 mph - N/A   Clear
2:34 PM 41.0 °F 34.7 °F 24.8 °F 53% 30.37 in 10.0 mi ENE 10.4 mph - N/A   Clear
2:54 PM 39.2 °F 32.0 °F 24.8 °F 56% 30.36 in 10.0 mi ENE 11.5 mph - N/A   Clear
3:14 PM 39.2 °F 33.6 °F 26.6 °F 61% 30.36 in 10.0 mi ENE 8.1 mph - N/A   Clear
3:34 PM 42.8 °F 37.5 °F 24.8 °F 49% 30.35 in 10.0 mi ENE 9.2 mph - N/A   Clear
3:54 PM 42.8 °F 36.6 °F 24.8 °F 49% 30.35 in 10.0 mi ENE 11.5 mph - N/A   Clear
4:13 PM 42.8 °F 38.0 °F 26.6 °F 53% 30.34 in 10.0 mi ENE 8.1 mph - N/A   Clear
4:34 PM 42.8 °F 38.0 °F 24.8 °F 49% 30.33 in 10.0 mi ENE 8.1 mph - N/A   Clear
4:54 PM 44.6 °F 38.8 °F 24.8 °F 46% 30.33 in 10.0 mi NE 11.5 mph 17.3 mph N/A   Clear
5:13 PM 44.6 °F 38.8 °F 23.0 °F 43% 30.32 in 10.0 mi ENE 11.5 mph - N/A   Clear
5:34 PM 42.8 °F 37.0 °F 24.8 °F 49% 30.31 in 10.0 mi ENE 10.4 mph 18.4 mph N/A   Clear
5:54 PM 41.0 °F 33.5 °F 23.0 °F 49% 30.32 in 10.0 mi ENE 13.8 mph - N/A   Clear
6:13 PM 42.8 °F 36.2 °F 24.8 °F 49% 30.32 in 10.0 mi NE 12.7 mph - N/A   Clear
6:34 PM 41.0 °F 35.2 °F 24.8 °F 53% 30.32 in 10.0 mi NE 9.2 mph - N/A   Clear
6:54 PM 41.0 °F 34.7 °F 24.8 °F 53% 30.32 in 10.0 mi ENE 10.4 mph - N/A   Clear
7:13 PM 39.2 °F 33.6 °F 24.8 °F 56% 30.32 in 10.0 mi East 8.1 mph - N/A   Clear
7:34 PM 39.2 °F 33.0 °F 24.8 °F 56% 30.32 in 10.0 mi East 9.2 mph - N/A   Clear
7:54 PM 39.2 °F 33.0 °F 24.8 °F 56% 30.32 in 10.0 mi East 9.2 mph - N/A   Clear
8:13 PM 39.2 °F 32.5 °F 21.2 °F 49% 30.31 in 10.0 mi ENE 10.4 mph - N/A   Clear
8:34 PM 37.4 °F 30.8 °F 24.8 °F 60% 30.32 in 10.0 mi East 9.2 mph - N/A   Clear
8:54 PM 37.4 °F 30.8 °F 24.8 °F 60% 30.32 in 10.0 mi East 9.2 mph - N/A   Clear
9:14 PM 37.4 °F 31.4 °F 24.8 °F 60% 30.32 in 10.0 mi East 8.1 mph - N/A   Clear
9:34 PM 37.4 °F 31.4 °F 24.8 °F 60% 30.33 in 10.0 mi East 8.1 mph - N/A   Clear
9:54 PM 35.6 °F 30.7 °F 26.6 °F 70% 30.33 in 10.0 mi East 5.8 mph - N/A   Clear
10:14 PM 35.6 °F 29.9 °F 26.6 °F 70% 30.32 in 10.0 mi ENE 6.9 mph - N/A   Clear
10:34 PM 37.4 °F 31.4 °F 24.8 °F 60% 30.32 in 10.0 mi ENE 8.1 mph - N/A   Clear
10:54 PM 37.4 °F 32.1 °F 24.8 °F 60% 30.33 in 10.0 mi ENE 6.9 mph - N/A   Clear
11:14 PM 37.4 °F 32.8 °F 26.6 °F 65% 30.32 in 10.0 mi ENE 5.8 mph - N/A   Clear
11:34 PM 35.6 °F 31.7 °F 26.6 °F 70% 30.30 in 10.0 mi NE 4.6 mph - N/A   Clear
11:54 PM 35.6 °F 31.7 °F 26.6 °F 70% 30.31 in 10.0 mi NE 4.6 mph - N/A   Clear